Hourly Data Report for September 18, 2016

SHEARWATER RCS
NOVA SCOTIA

44°37'47.000" N
63°30'48.000" W
24.00 m
8205092
71264
AAW

Download Data

Hourly Data (September 2016)
Hourly Data Report for September 18, 2016
TIME Temp Definition
°C
Dew Point Definition
°C
Rel Hum Definition
%
Wind Dir Definition
10's deg

Wind Spd Definition
km/h
Visibility Definition
km
Stn Press Definition
kPa
Hmdx Definition


Wind Chill Definition


Weather Definition


00:00 15.2 13.1 87 17 9   101.91     LegendNANA
01:00 15.1 13.7 91 19 6   101.87     LegendNANA
02:00 17.5 14.7 83 19 12   101.80     LegendNANA
03:00 17.8 14.3 80 19 11   101.72     LegendNANA
04:00 16.2 13.9 87 17 9   101.67     LegendNANA
05:00 15.9 14.0 88 18 7   101.67     LegendNANA
06:00 17.0 15.4 91 20 13   101.67     LegendNANA
07:00 18.3 15.0 81 21 13   101.66     LegendNANA
08:00 19.8 14.2 70 21 21   101.65     LegendNANA
09:00 21.3 14.3 65 22 26   101.64 25   LegendNANA
10:00 21.2 15.5 70 22 22   101.64 25   LegendNANA
11:00 22.7 16.3 67 22 22   101.58 28   LegendNANA
12:00 22.5 16.4 68 21 25   101.54 27   LegendNANA
13:00 21.9 16.6 72 22 29   101.51 27   LegendNANA
14:00 21.9 17.2 75 22 20   101.47 27   LegendNANA
15:00 22.0 17.1 74 22 21   101.44 27   LegendNANA
16:00 19.6 17.0 85 23 15   101.47     LegendNANA
17:00 18.7 17.0 90 21 14   101.46     LegendNANA
18:00 18.7 17.1 90 22 8   101.49     LegendNANA
19:00 18.7 17.2 91 23 10   101.52     LegendNANA
20:00 18.4 17.0 91 22 11   101.57     LegendNANA
21:00 18.3 16.9 92 22 11   101.60     LegendNANA
22:00 18.3 17.1 93 21 13   101.58     LegendNANA
23:00 18.6 17.5 93 22 9   101.59     LegendNANA

Notes on Data Quality.

Legend

  • E = Estimated
  • M = Missing
  • NA = Not Available*
  • [empty] = Indicates an unobserved value
Date modified: